Location: Austin
(30.3000°N, 97.7500°W)
Time: 02:02:16
(UTC-05:00)

Cosmos 2233 Rocket - Pass Details

Date: 15 May 2024
Orbit: 953 x 990 km, 82.9° (Epoch: 19 May)

Event Time Altitude Azimuth Distance (km) Brightness Sun altitude
Rises 21:20:36 0° 355° (N) 3,690 7.6 -12.7°
Reaches altitude 10° 21:23:07 10° 357° (N) 2,743 6.8 -13.2°
Maximum altitude 21:29:26 82° 85° (E) 1,001 4.0 -14.4°
Drops below altitude 10° 21:35:44 10° 173° (S) 2,740 6.0 -15.5°
Enters shadow 21:36:22 - 173° (S) 2,979 6.2 -15.6°
